Volver al catálogo

COSMOS 252 DEB

ActivoLEO
NORAD 3814·DEBRIS·🇷🇺 Russia

Lanzado Nov 1, 1968 desde Baikonur Cosmodrome

Loading…

Próximos Pases (próximas 24 horas)

TLE

ActualizadoSource: Space-Track

Época: Sep 14, 2026, 13:51 UTC

1 03814U 68097BC  26257.57769990  .00000468  00000-0  66991-3 0  9992
2 03814  62.2647 102.3163 0777066  47.4227 318.9712 12.79523312665890

Sigue COSMOS 252 DEB en tiempo real con AllMySat

Download on the App Store